Temperature
16 16 16 15 14 14 13 13 12 12 12 12 12 11 11 11 11 11 11 11 10 10 10 10 10 10 10 10 10 11 11 11 11 12 12 13 13 13 13 13 13 14 14
17 16 15 15 14 14 13 13 12 12 12 12 11 11 11 11 11 11 10 10 10 10 10 10 10 10 10 10 10 10 10 11 11 11 11 12 12 12 13 13 13 13 13
17 16 16 15 14 14 13 13 12 12 12 12 12 11 11 11 11 10 10 10 10 10 10 10 10 10 10 10 10 10 10 10 10 11 11 11 12 12 12 13 13 13 13
17 16 16 15 15 14 14 13 13 12 12 12 12 11 11 11 11 11 10 10 10 10 10 10 10 10 10 10 10 10 10 10 10 10 10 11 11 12 12 12 13 13 13
17 16 16 15 15 14 14 13 13 13 12 12 12 11 11 11 11 11 11 10 10 10 10 10 9 9 9 10 9 9 9 9 9 9 10 10 11 11 12 12 12 13 13
17 17 16 16 15 15 14 14 13 13 12 12 12 11 11 11 11 11 10 10 10 10 10 10 9 9 9 10 10 10 9 9 9 9 9 9 10 11 11 11 12 12 12
17 17 16 16 15 15 14 14 13 13 13 12 12 12 11 11 11 11 10 10 10 10 10 10 9 9 9 9 9 9 9 9 9 9 9 9 10 10 10 10 11 11 11
18 17 17 16 15 15 15 14 14 13 13 13 12 12 11 11 11 10 10 10 10 10 10 10 9 9 9 9 9 9 9 9 9 9 9 9 10 10 10 9 9 10 11
18 17 17 16 16 15 15 14 14 13 13 13 12 12 11 11 11 10 10 10 10 10 10 9 9 9 9 9 9 9 9 9 9 9 9 9 9 9 9 9 9 9 10
18 17 17 16 16 15 15 15 14 14 13 13 12 12 11 11 11 11 10 10 10 9 9 9 9 9 9 9 9 9 8 9 8 8 8 8 9 9 9 9 9 8 9
18 17 17 16 16 16 15 15 14 14 13 13 12 12 12 12 11 11 11 10 10 9 9 9 9 9 9 9 9 9 8 8 8 8 8 8 8 8 9 9 9 9 9
17 17 16 16 16 15 15 15 14 14 13 13 12 12 12 12 11 11 11 11 10 10 9 9 9 9 9 9 9 9 8 8 8 8 8 8 8 8 9 9 9 9 10
17 17 16 16 16 16 15 15 14 13 13 12 12 12 12 12 12 11 11 10 10 9 9 9 9 8 8 8 9 8 8 8 8 7 7 8 8 8 8 9 9 9 9
16 16 16 15 15 15 15 14 14 13 13 13 13 13 12 12 12 11 11 10 10 9 9 9 9 9 8 8 8 8 8 8 8 7 7 7 8 8 8 8 9 9 9
15 15 15 15 15 14 14 14 14 14 13 13 13 12 12 12 11 11 10 10 9 9 9 8 8 8 8 8 8 8 8 8 8 7 7 7 7 8 8 8 9 9 9
14 14 14 14 14 14 14 14 14 14 14 13 13 13 12 12 11 11 11 10 10 9 9 9 8 8 8 8 8 8 8 8 8 8 8 8 8 8 8 8 9 9 9
13 13 13 13 13 14 14 14 14 14 14 14 13 13 12 12 11 11 10 10 10 9 9 9 8 8 8 8 8 8 8 8 8 8 8 8 8 8 8 8 9 9 9
12 12 12 13 13 13 13 14 14 14 13 13 13 13 12 12 11 11 10 10 10 9 9 9 9 8 8 8 8 8 8 8 8 8 8 8 8 8 8 8 8 9 9
11 11 12 12 12 13 13 13 13 13 13 13 13 13 12 12 11 11 10 10 10 9 9 9 9 9 8 8 8 8 8 8 8 8 8 8 8 8 8 8 8 9 9
11 11 11 12 12 12 13 13 13 13 13 13 12 12 12 11 11 11 10 10 10 9 9 9 9 9 8 8 8 8 8 8 8 8 8 8 8 8 8 8 8 9 9
10 10 11 11 12 12 12 12 12 12 12 12 12 12 11 11 11 11 10 10 10 9 9 9 9 9 8 8 8 8 8 8 8 8 8 8 8 8 8 8 8 8 9
9 10 10 10 10 11 11 11 11 11 11 11 11 11 11 11 10 10 10 10 9 9 9 9 8 8 8 8 8 8 8 8 8 8 8 8 8 8 8 8 8 8 9
9 9 9 9 9 10 10 10 10 11 11 11 10 10 10 10 10 10 9 9 9 9 8 8 8 8 8 8 8 7 7 7 7 7 7 8 8 8 8 8 8 8 8
8 8 8 9 9 9 9 9 9 9 10 10 10 9 9 9 9 9 9 9 8 8 8 8 8 8 8 8 7 7 7 7 7 7 7 7 8 8 8 8 8 8 8
7 7 8 8 8 8 8 8 8 9 9 9 9 9 9 9 8 8 8 8 8 8 8 8 8 8 8 7 7 7 7 7 7 7 7 7 8 8 8 8 8 8 8
7 7 7 7 7 7 7 7 7 7 8 8 8 8 8 8 8 8 8 8 8 8 8 8 8 7 7 7 7 7 7 7 7 7 7 7 8 8 8 8 8 8 9
Wind_Speed
6 5 3 3 4 4 5 6 6 6 6 6 6 7 7 7 7 7 7 8 8 8 8 8 8 7 6 6 6 6 6 6 8 7 6 5 4 6 4 6 9 9 10
7 6 6 6 5 6 6 6 5 6 6 6 6 6 7 8 7 7 8 8 8 8 8 8 8 8 8 7 6 7 7 7 7 9 7 7 8 7 6 7 6 9 9
8 8 7 7 7 7 6 6 5 6 6 6 7 7 7 7 7 7 8 8 8 8 8 8 8 8 8 7 7 7 7 9 7 7 8 6 6 7 6 7 7 6 8
7 7 7 7 6 6 6 5 5 6 6 7 7 7 7 8 8 8 8 8 8 8 8 8 9 9 9 9 8 8 8 8 8 8 8 7 7 7 6 6 6 6 6
6 6 6 6 6 6 6 6 6 6 8 7 7 7 7 8 9 7 6 8 7 7 8 8 10 11 12 10 10 7 7 6 6 7 7 7 7 6 5 5 6 5 6
7 6 6 6 6 6 6 6 6 6 7 6 7 8 9 10 5 4 5 7 7 8 9 9 10 12 13 15 16 15 12 10 9 8 8 8 8 7 6 6 5 5 5
8 8 7 6 7 7 7 6 6 6 6 7 7 8 9 9 11 10 11 8 9 9 9 9 12 13 10 8 11 14 16 18 17 12 11 11 10 9 7 8 7 7 6
9 9 8 8 7 7 6 6 6 6 6 7 7 8 8 11 12 12 12 10 10 10 11 11 11 11 13 10 9 9 9 10 13 13 13 13 13 10 9 8 8 8 8
11 10 9 8 7 6 6 6 6 6 7 7 8 9 9 10 11 12 12 8 9 11 12 12 12 11 13 12 9 9 9 9 12 15 15 16 16 15 10 7 7 8 8
11 10 9 7 7 6 6 6 6 6 7 8 9 9 9 9 11 13 12 9 10 10 9 10 13 13 12 11 9 9 10 10 10 11 10 12 13 14 15 12 10 9 9
9 8 8 7 7 7 7 7 7 8 9 9 9 9 10 11 12 14 15 10 10 10 9 8 6 7 8 11 11 9 11 9 7 8 9 9 9 9 11 11 12 11 11
6 7 7 7 8 9 8 8 8 9 10 10 11 11 10 10 12 12 16 16 14 10 9 8 5 4 6 9 10 12 13 10 8 9 10 10 9 9 9 10 12 13 11
7 7 7 7 7 7 7 8 9 9 11 11 10 9 7 6 6 11 14 16 16 11 10 12 11 10 10 10 15 16 13 10 10 11 11 10 9 9 8 8 9 10 11
7 7 7 7 9 9 9 10 10 10 10 9 8 7 6 5 4 3 4 6 10 11 10 11 14 16 14 14 13 11 11 11 11 11 10 9 8 8 8 8 7 7 8
6 7 8 10 10 10 10 11 11 10 9 9 7 7 7 7 4 2 2 5 5 4 4 7 9 10 9 9 9 10 10 10 12 12 11 10 9 9 9 8 7 7 7
7 8 10 10 10 11 11 11 16 18 17 18 18 15 10 11 10 10 10 9 7 4 4 9 11 11 10 9 9 9 9 9 10 10 10 10 10 9 8 8 7 7 8
8 9 11 11 12 11 10 9 9 11 17 19 19 19 18 16 15 13 12 10 8 6 6 10 11 10 10 9 9 9 9 8 8 9 10 10 9 9 9 8 8 8 8
11 13 13 11 12 12 11 10 9 9 8 8 13 19 20 19 19 18 13 6 8 8 9 11 11 10 9 9 9 8 8 7 8 8 9 9 9 9 9 9 8 9 9
13 12 12 12 13 13 11 10 10 10 10 8 6 8 14 17 17 16 10 8 11 11 10 10 10 10 9 8 7 7 7 7 8 8 8 9 9 9 9 9 9 11 10
11 16 15 14 14 13 11 11 10 9 8 8 7 7 5 6 7 8 8 10 11 11 10 9 8 8 7 7 7 7 7 7 8 8 8 8 8 8 9 10 9 9 9
14 15 17 15 13 12 11 11 9 8 8 8 8 6 4 5 8 7 6 7 8 8 7 7 7 6 6 6 6 7 8 8 7 8 7 7 7 8 8 8 9 8 7
14 14 14 14 14 12 12 11 11 10 9 8 7 5 5 6 7 6 5 5 5 4 4 5 6 6 5 6 6 6 7 8 7 7 7 7 7 7 7 8 8 8 8
14 16 16 15 14 14 13 11 10 9 7 6 7 5 4 5 4 4 5 5 4 4 4 4 6 6 5 5 5 6 7 7 7 7 7 7 7 7 7 8 10 9 9
16 17 16 15 14 13 12 10 9 9 8 6 5 4 4 4 4 4 4 4 4 5 5 5 5 7 8 7 6 5 4 5 6 7 8 8 8 7 7 8 8 9 10
16 15 15 14 13 12 11 11 9 8 7 6 4 3 4 4 4 3 3 4 5 5 5 6 5 6 7 8 7 5 4 5 5 6 6 7 8 8 8 9 8 8 9
15 14 13 12 12 11 10 9 8 7 6 5 4 4 4 4 4 3 3 4 5 5 6 6 6 7 8 6 6 4 4 4 5 6 6 6 7 7 7 7 9 8 8
Wind_Direction
203 208 233 228 240 240 237 243 251 259 270 274 272 271 272 271 269 263 261 267 269 267 268 268 264 264 268 276 282 284 282 278 279 285 288 292 277 274 264 257 263 259 256
194 195 202 215 229 244 254 253 256 260 263 270 272 272 273 274 272 273 274 276 273 271 269 269 269 268 260 259 265 271 274 275 276 279 281 282 275 266 255 249 258 261 255
188 190 199 210 223 230 242 254 261 266 268 271 273 274 274 275 274 269 266 267 268 270 271 271 270 268 267 263 263 267 274 279 280 281 283 276 272 269 261 256 255 255 255
188 193 201 210 224 234 239 244 253 261 265 266 267 270 273 275 274 269 266 266 266 267 267 268 269 266 263 262 263 259 263 269 275 279 278 276 272 266 260 251 255 245 244
192 205 209 210 217 226 236 240 247 255 266 268 271 273 273 272 270 271 268 271 278 284 281 275 271 268 261 256 261 263 271 273 276 278 277 278 275 275 273 264 264 259 242
195 213 216 215 222 229 234 239 245 249 256 263 269 273 273 276 272 256 260 283 284 281 279 277 277 272 261 246 244 246 248 257 263 269 276 279 286 299 311 308 299 294 277
195 208 214 214 222 227 239 245 250 260 265 264 266 269 271 271 263 246 239 254 267 269 271 273 276 276 282 268 250 244 245 246 244 249 261 268 276 286 306 313 310 305 292
200 207 212 215 224 225 229 239 246 252 259 264 266 269 270 271 264 247 239 245 261 263 263 262 263 267 271 270 272 264 254 250 244 241 243 250 257 265 272 280 287 289 281
206 206 211 214 220 225 234 239 244 249 257 262 266 263 264 266 258 243 234 253 260 263 262 263 261 260 256 248 249 257 262 263 261 252 236 236 239 243 246 262 273 278 279
208 204 204 206 213 224 236 243 248 251 258 264 264 261 263 267 262 242 227 247 260 265 265 262 260 258 256 237 235 248 256 259 267 278 269 254 249 247 238 236 245 255 264
204 201 198 198 204 219 228 233 240 248 256 261 267 267 262 260 259 241 225 235 252 264 271 275 276 274 255 240 237 247 253 262 274 274 273 267 256 246 241 231 225 230 240
206 207 205 202 216 224 217 226 235 244 255 259 258 259 257 251 247 240 224 224 239 254 264 273 277 276 263 252 244 247 251 256 261 263 262 259 255 251 244 234 224 220 223
213 214 216 216 220 227 230 236 241 242 249 257 258 258 259 249 241 233 223 224 232 240 258 268 279 270 266 258 248 245 247 248 249 253 255 255 253 252 252 250 240 228 226
224 226 228 230 234 234 234 240 244 247 250 254 258 267 276 273 266 226 212 225 233 242 258 269 269 260 251 252 256 246 237 239 242 247 251 254 254 250 248 246 243 234 228
246 247 249 248 247 245 241 240 243 247 250 253 263 269 273 275 256 178 252 277 284 304 303 280 273 269 260 253 249 244 239 234 236 241 247 252 254 252 246 240 238 233 231
270 265 264 261 258 254 251 249 235 233 238 231 231 238 249 249 245 245 248 246 247 246 263 267 268 268 266 265 265 259 250 244 242 239 239 242 247 249 246 235 230 227 230
295 284 277 273 272 269 263 258 258 244 236 236 235 235 236 246 251 252 254 258 250 211 237 257 261 263 265 267 265 262 259 252 246 243 241 239 241 245 244 239 230 225 226
311 297 286 279 278 277 272 266 262 264 263 250 234 230 233 239 245 250 251 255 256 226 237 249 256 259 260 262 264 263 260 258 252 246 244 240 236 235 236 234 231 226 222
312 302 297 293 287 282 277 273 269 267 268 268 260 235 225 232 240 246 229 232 251 258 253 251 252 255 256 256 261 263 261 259 256 249 243 239 237 234 231 231 229 226 223
305 298 299 298 291 285 280 275 273 273 275 272 267 264 244 227 239 236 219 227 241 254 262 265 263 262 259 257 262 264 262 260 258 252 245 239 236 235 233 231 229 225 220
314 311 307 301 296 293 290 284 281 277 276 279 278 270 257 256 260 257 248 236 242 254 263 271 272 271 269 259 256 261 264 262 259 254 248 239 234 234 231 230 228 225 221
314 311 312 310 307 302 296 289 282 277 277 282 283 270 242 256 268 275 279 277 272 263 268 277 284 279 270 264 262 263 265 264 262 257 247 243 240 236 230 228 227 222 217
316 312 309 306 304 301 298 293 290 284 278 276 277 280 267 266 272 279 284 291 298 294 287 283 285 285 283 274 269 263 264 266 264 262 256 246 241 237 232 226 224 222 216
314 311 308 306 306 304 301 298 296 290 285 282 281 283 285 285 282 284 295 307 305 301 296 297 296 297 296 292 278 268 267 276 284 274 261 251 247 240 233 229 225 223 220
313 313 311 310 309 307 305 303 298 296 299 298 305 307 307 313 312 317 328 328 321 316 318 313 302 300 298 292 289 285 283 284 281 287 275 258 248 242 238 232 225 225 222
318 320 320 320 317 312 308 307 309 317 323 330 336 333 333 332 329 326 332 336 327 322 318 313 311 312 314 309 302 294 286 279 275 276 269 259 251 242 239 235 228 221 220
Height
1524 1525 1525 1525 1524 1524 1523 1523 1522 1521 1520 1519 1518 1517 1517 1516 1515 1514 1513 1512 1511 1510 1510 1509 1509 1508 1508 1507 1507 1507 1507 1506 1504 1503 1503 1502 1502 1501 1500 1499 1498 1497 1497
1521 1521 1521 1521 1521 1520 1520 1520 1519 1518 1517 1516 1515 1514 1513 1512 1511 1510 1509 1508 1507 1506 1506 1505 1504 1504 1503 1503 1502 1502 1502 1501 1501 1498 1498 1497 1497 1496 1495 1494 1493 1493 1492
1518 1518 1518 1518 1517 1517 1517 1516 1516 1515 1513 1512 1511 1510 1509 1508 1507 1505 1504 1503 1502 1502 1501 1500 1499 1499 1498 1497 1497 1497 1496 1496 1496 1494 1493 1493 1492 1492 1491 1490 1489 1488 1487
1515 1515 1515 1514 1514 1514 1513 1513 1512 1511 1510 1508 1507 1506 1505 1503 1502 1501 1500 1499 1498 1497 1496 1495 1494 1493 1493 1492 1492 1491 1491 1490 1490 1489 1488 1487 1487 1487 1486 1485 1484 1483 1482
1511 1511 1511 1511 1510 1510 1509 1509 1508 1507 1506 1504 1503 1502 1500 1499 1498 1497 1495 1494 1493 1491 1490 1489 1488 1488 1487 1487 1486 1486 1486 1485 1484 1484 1483 1483 1482 1482 1482 1480 1479 1478 1477
1506 1507 1507 1507 1507 1506 1506 1505 1504 1503 1501 1500 1498 1497 1495 1495 1494 1492 1491 1489 1487 1485 1484 1483 1482 1481 1481 1480 1480 1479 1480 1479 1478 1478 1477 1477 1477 1477 1476 1476 1475 1474 1473
1502 1502 1502 1502 1502 1502 1501 1501 1500 1499 1497 1495 1494 1492 1490 1489 1488 1486 1485 1483 1481 1479 1478 1476 1475 1475 1475 1474 1473 1473 1472 1472 1472 1472 1470 1470 1470 1471 1471 1470 1469 1469 1468
1497 1497 1498 1498 1498 1498 1497 1496 1495 1493 1492 1490 1488 1487 1485 1483 1482 1481 1479 1477 1475 1473 1472 1470 1469 1468 1468 1468 1467 1466 1466 1465 1465 1465 1464 1463 1464 1465 1465 1465 1465 1464 1463
1492 1492 1493 1493 1493 1493 1492 1491 1489 1488 1486 1485 1483 1481 1479 1477 1476 1475 1473 1471 1469 1467 1466 1465 1464 1463 1462 1462 1461 1460 1459 1458 1458 1458 1458 1457 1457 1458 1459 1459 1459 1459 1458
1486 1487 1488 1488 1487 1487 1487 1486 1485 1483 1481 1479 1477 1475 1474 1472 1470 1469 1467 1465 1463 1462 1460 1459 1458 1457 1456 1455 1454 1453 1452 1451 1451 1451 1450 1450 1450 1450 1451 1451 1452 1452 1452
1481 1482 1482 1481 1481 1481 1481 1480 1479 1477 1475 1473 1471 1469 1467 1466 1464 1463 1461 1459 1457 1456 1455 1454 1453 1451 1450 1449 1448 1446 1445 1445 1444 1443 1442 1442 1442 1442 1442 1443 1444 1445 1446
1477 1477 1476 1475 1474 1474 1474 1473 1472 1471 1469 1466 1464 1463 1461 1459 1458 1456 1455 1454 1452 1450 1448 1447 1446 1444 1443 1442 1441 1439 1439 1438 1437 1435 1435 1434 1434 1435 1435 1436 1437 1437 1438
1472 1471 1470 1469 1469 1468 1467 1466 1465 1464 1462 1460 1459 1457 1456 1454 1452 1450 1449 1447 1446 1444 1442 1440 1439 1438 1436 1434 1433 1432 1431 1430 1429 1428 1427 1427 1427 1428 1429 1430 1431 1432 1432
1466 1466 1465 1464 1462 1461 1460 1459 1458 1457 1456 1454 1453 1451 1450 1448 1447 1444 1443 1441 1439 1437 1435 1433 1432 1430 1429 1427 1426 1424 1423 1422 1422 1421 1420 1420 1421 1421 1422 1423 1424 1425 1426
1462 1461 1460 1458 1456 1455 1453 1451 1450 1449 1449 1448 1446 1445 1443 1441 1440 1438 1437 1435 1434 1431 1429 1426 1424 1423 1421 1420 1419 1418 1416 1416 1415 1414 1413 1414 1414 1414 1415 1416 1418 1419 1420
1457 1456 1454 1453 1451 1449 1446 1444 1442 1441 1440 1439 1438 1437 1435 1434 1432 1431 1430 1428 1426 1424 1422 1419 1417 1415 1414 1413 1412 1411 1410 1409 1408 1407 1407 1407 1407 1408 1408 1409 1411 1412 1413
1452 1451 1449 1447 1445 1442 1440 1437 1435 1433 1432 1430 1429 1428 1427 1426 1425 1424 1422 1421 1419 1417 1414 1412 1410 1408 1407 1406 1405 1404 1402 1401 1401 1400 1400 1399 1400 1401 1402 1403 1404 1405 1407
1448 1445 1443 1440 1437 1435 1432 1430 1428 1426 1424 1422 1421 1419 1419 1418 1417 1416 1415 1414 1411 1410 1407 1405 1403 1402 1401 1399 1398 1397 1395 1394 1393 1393 1392 1392 1393 1393 1394 1396 1397 1399 1401
1443 1440 1437 1434 1430 1428 1425 1422 1420 1418 1416 1415 1413 1412 1411 1410 1409 1408 1407 1406 1404 1403 1401 1399 1397 1396 1394 1393 1391 1390 1388 1387 1386 1386 1385 1385 1386 1387 1387 1389 1390 1392 1394
1438 1435 1431 1427 1423 1420 1418 1415 1413 1411 1409 1408 1406 1405 1404 1403 1402 1401 1400 1398 1397 1396 1394 1393 1391 1389 1387 1386 1384 1383 1381 1380 1379 1379 1378 1378 1379 1380 1381 1382 1384 1386 1388
1433 1429 1425 1421 1417 1413 1410 1408 1405 1403 1402 1400 1399 1398 1398 1397 1396 1395 1394 1393 1391 1389 1388 1386 1384 1382 1381 1379 1377 1376 1374 1373 1373 1372 1372 1372 1373 1373 1374 1376 1377 1380 1382
1429 1424 1420 1416 1411 1407 1404 1401 1398 1396 1394 1393 1392 1391 1391 1390 1389 1388 1388 1386 1385 1383 1382 1379 1378 1376 1374 1372 1371 1369 1368 1367 1366 1365 1365 1366 1366 1367 1368 1370 1371 1373 1375
1423 1419 1414 1410 1405 1401 1397 1394 1391 1389 1387 1386 1386 1385 1385 1384 1383 1382 1381 1380 1379 1377 1375 1374 1372 1370 1368 1366 1364 1363 1361 1360 1360 1359 1359 1359 1360 1361 1362 1363 1365 1367 1369
1418 1413 1408 1403 1399 1395 1391 1388 1385 1383 1381 1380 1380 1380 1379 1378 1377 1377 1376 1375 1373 1372 1370 1368 1366 1364 1362 1360 1358 1357 1355 1354 1353 1353 1353 1353 1354 1355 1356 1357 1359 1361 1364
1412 1407 1402 1397 1393 1389 1385 1382 1379 1377 1376 1375 1374 1374 1374 1373 1373 1372 1371 1370 1368 1367 1365 1363 1361 1359 1357 1355 1353 1351 1350 1348 1348 1347 1347 1347 1348 1349 1350 1352 1353 1356 1358
1406 1401 1396 1391 1387 1383 1379 1376 1374 1372 1371 1370 1370 1369 1369 1369 1368 1368 1367 1366 1364 1363 1361 1359 1357 1355 1352 1350 1348 1346 1344 1343 1342 1341 1341 1341 1342 1343 1345 1347 1349 1350 1353